Location: Pompeys Pillar
(45.9913°N, 107.9528°W)
Time: 06:03:33
(UTC+00:00)

Tiros 1 - Pass Details

Date: 31 May 2022
Orbit: 629 x 663 km, 48.4° (Epoch: 04 July)

Event Time Altitude Azimuth Distance (km) Brightness Sun altitude
Rises 06:02:12 0° 227° (SW) 2,903 - -20.4°
Reaches altitude 10° 06:04:34 10° 221° (SW) 1,999 - -20.5°
Maximum altitude 06:08:57 46° 149° (SSE) 851 - -20.7°
Exits shadow 06:10:05 37° 109° (ESE) 973 7.7 -20.8°
Drops below altitude 10° 06:13:22 10° 77° (ENE) 2,014 9.7 -20.9°
Sets 06:15:46 0° 71° (ENE) 2,928 10.6 -21.0°
